Home > Weather > Majuro > Past weeks

Flag for Marshall Islands Weather for the Past 2 Weeks in Majuro, Marshall Islands

Now
84 °F

More clouds than sun.


Feels Like: 92 °F
Forecast: 81 / 85 °F
Wind: 17 mph from Northeast

Location: Majuro Atoll

Current Time: Feb 12, 2016 at 11:26:04 AM

Latest Report: Feb 12, 2016 at 9:51 AM


Visibility: 15 mi

Pressure: 29.85 "Hg

Humidity: 73%

Dew point: 74 °F

Location of MajuroLocation

Historic Weather in Majuro — Graph

°F

Majuro Temperature Yesterday

Maximum temperature yesterday: 87 °F (at 2:52 PM)
Minimum temperature yesterday: 81 °F (at 12:50 AM)
Average temperature yesterday: 83 °F

High & Low Weather Summary for the Past Weeks

 TemperatureHumidityPressure
High87 °F (Feb 3, 1:51 PM)92% (Feb 10, 5:54 PM)29.94 "Hg (Feb 10, 5:54 PM)
Low78 °F (Feb 7, 6:54 PM)60% (Feb 1, 2:50 PM)29.71 "Hg (Feb 9, 2:50 PM)
Average83 °F74%29.83 "Hg
* Reported Jan 28 8:50 AM — Feb 12 8:50 AM, Majuro, Weather by CustomWeather, © 2016

Note: Actual official high and low records may vary slightly from our data, if they occured in-between our weather recording intervals... More about our weather records

Advertising

Majuro Weather History for the Previous 24 Hours

 ConditionsComfort  
Time TempWeatherWind HumidityBarometerVisibility
8:50 AM
Fri, Feb 12
83 °FMore clouds than sun.16 mph71%29.85 "Hg15 mi
7:50 AM82 °FOvercast.14 mph73%29.83 "Hg15 mi
6:53 AM81 °FOvercast.13 mph75%29.82 "Hg15 mi
5:56 AM81 °FMostly cloudy.17 mph74%29.81 "Hg15 mi
4:56 AM81 °FMostly cloudy.13 mph73%29.80 "Hg15 mi
3:53 AM81 °FMostly cloudy.17 mph79%29.78 "Hg15 mi
2:53 AM81 °FMostly cloudy.15 mph80%29.78 "Hg15 mi
1:50 AM82 °FMostly cloudy.12 mph78%29.80 "Hg15 mi
12:54 AM82 °FMostly cloudy.14 mph78%29.82 "Hg15 mi
11:52 PM
Thu, Feb 11
82 °FMostly cloudy.14 mph79%29.83 "Hg15 mi
10:53 PM82 °FMostly cloudy.12 mph79%29.84 "Hg15 mi
9:54 PM82 °FOvercast.13 mph78%29.84 "Hg15 mi
8:52 PM83 °FOvercast.13 mph76%29.83 "Hg15 mi
7:53 PM83 °FOvercast.15 mph77%29.81 "Hg15 mi
6:52 PM83 °FCloudy.16 mph78%29.78 "Hg15 mi
5:53 PM83 °FCloudy.16 mph81%29.77 "Hg15 mi
4:53 PM84 °FCloudy.12 mph76%29.75 "Hg15 mi
3:51 PM86 °FMore clouds than sun.15 mph74%29.74 "Hg15 mi
2:52 PM87 °FMore clouds than sun.13 mph73%29.75 "Hg15 mi
1:50 PM86 °FMore clouds than sun.12 mph74%29.78 "Hg15 mi
12:55 PM84 °FCloudy.15 mph77%29.80 "Hg15 mi
11:56 AM85 °FMore clouds than sun.18 mph76%29.82 "Hg15 mi
Weather by CustomWeather, © 2016

See weather overviewHow to use our weather pages